Stations météo

réclame
Mon MeteoGroup
Porto Colom, Espagne (8309): Température de l'air & dewpoint: 19.02.2018 06:00:00 - 25.02.2018 06:00:00 (CET)Porto Colom, Espagne (8309): Vitesse du vent & gusts: 19.02.2018 06:00:00 - 25.02.2018 06:00:00 (CET)Porto Colom, Espagne (8309): Direction du vent: 19.02.2018 06:00:00 - 25.02.2018 06:00:00 (CET)Porto Colom, Espagne (8309): reduced air pressure: 19.02.2018 06:00:00 - 25.02.2018 06:00:00 (CET)Porto Colom, Espagne (8309): visibility: 19.02.2018 06:00:00 - 25.02.2018 06:00:00 (CET)Porto Colom, Espagne (8309): Ensoleillement: 19.02.2018 06:00:00 - 25.02.2018 06:00:00 (CET)Porto Colom, Espagne (8309): Quantités de précipitations: 19.02.2018 06:00:00 - 25.02.2018 06:00:00 (CET)
Date & Time tt [°C] td [°C] ff [km/h] ff [knt] fx [km/h] fx [knt] dd ppp [hPa] vv [km] sd [min] rr [mm]
25.02.2018 06:00:00 - - - - - - - - - - -
25.02.2018 05:00:00 6,9 3,0 8 5 16 8 NNW 1009,5 20 0 0,0
25.02.2018 04:00:00 6,5 2,5 8 5 16 9 NW 1009,7 20 0 0,0
25.02.2018 03:00:00 5,6 2,7 10 5 13 7 NW 1009,9 20 0 0,0
25.02.2018 02:00:00 5,3 2,7 11 6 13 7 NNW 1010,0 20 0 0,0
25.02.2018 01:00:00 5,4 2,1 9 5 10 5 NNW 1010,2 20 0 -
25.02.2018 00:00:00 5,2 1,7 8 4 10 6 NNW 1010,1 20 0 0,0
24.02.2018 23:00:00 6,2 3,0 5 3 8 4 W 1009,8 16 0 0,0
24.02.2018 22:00:00 6,6 2,9 5 3 9 5 NW 1009,8 17 0 0,0
24.02.2018 21:00:00 6,8 3,2 6 3 8 5 NNW 1009,3 18 0 0,0
24.02.2018 20:00:00 7,3 3,2 6 3 9 5 NNW 1009,1 17 0 0,0
24.02.2018 19:00:00 8,8 3,9 4 2 5 3 N 1008,5 20 3 -
24.02.2018 18:00:00 11,7 2,1 3 2 7 4 S 1007,9 20 58 0,0
24.02.2018 17:00:00 12,4 2,3 4 2 10 5 ESE 1007,5 20 60 0,0
24.02.2018 16:00:00 13,0 3,0 8 4 14 8 S 1007,3 20 60 0,0
24.02.2018 15:00:00 13,1 3,2 7 4 15 8 SSE 1007,5 20 60 0,0
24.02.2018 14:00:00 13,0 3,4 8 5 16 9 SSE 1007,8 20 60 0,0
24.02.2018 13:00:00 12,6 4,3 6 3 11 6 ESE 1008,1 20 60 -
24.02.2018 12:00:00 12,0 3,8 6 3 14 8 E 1008,2 20 60 0,0
24.02.2018 11:00:00 11,3 3,6 8 5 14 8 ENE 1008,4 20 60 0,0
24.02.2018 10:00:00 10,3 3,8 7 4 12 7 NNE 1008,2 20 60 0,0
24.02.2018 09:00:00 6,6 3,4 9 5 13 7 NNE 1008,0 20 60 0,0
24.02.2018 08:00:00 3,1 1,3 10 5 11 6 N 1007,8 20 2 0,0
24.02.2018 07:00:00 3,3 1,3 10 5 11 6 N 1007,4 20 0 -
24.02.2018 06:00:00 3,6 1,5 10 5 12 6 N 1007,3 20 0 0,0
24.02.2018 05:00:00 3,3 1,5 10 5 11 6 N 1007,2 20 0 0,0
24.02.2018 04:00:00 3,9 2,5 10 5 11 6 N 1007,4 17 0 0,0
24.02.2018 03:00:00 3,9 2,5 9 5 11 6 NNW 1007,7 16 0 0,0
24.02.2018 02:00:00 4,5 2,5 9 5 12 6 N 1007,7 17 0 0,0
24.02.2018 01:00:00 4,0 2,3 10 6 12 6 NNW 1007,6 16 0 -
24.02.2018 00:00:00 4,8 2,7 9 5 11 6 NNW 1007,8 18 0 0,0
23.02.2018 23:00:00 5,4 2,5 8 4 11 6 N 1007,7 20 0 0,0
23.02.2018 22:00:00 5,5 2,9 8 5 14 8 N 1007,8 20 0 0,0
23.02.2018 21:00:00 5,7 3,0 9 5 17 9 N 1007,7 19 0 0,0
23.02.2018 20:00:00 6,4 3,4 10 5 15 8 N 1007,5 20 0 0,0
23.02.2018 19:00:00 7,5 3,6 9 5 19 11 N 1007,4 20 0 -
23.02.2018 18:00:00 8,1 3,9 11 6 26 14 N 1007,1 20 0 0,0
23.02.2018 17:00:00 8,7 3,4 14 8 29 16 NNE 1006,7 20 0 0,0
23.02.2018 16:00:00 9,9 3,6 14 7 27 14 NE 1006,3 18 5 0,0
23.02.2018 15:00:00 10,4 2,7 15 8 30 16 ENE 1006,1 20 50 0,0
23.02.2018 14:00:00 11,7 3,4 18 10 30 16 ENE 1006,0 17 58 0,0
23.02.2018 13:00:00 11,5 3,0 17 9 35 19 ENE 1006,4 15 55 -
23.02.2018 12:00:00 11,4 3,6 21 12 36 20 NE 1006,6 14 53 0,0
23.02.2018 11:00:00 10,5 3,9 21 12 37 20 NE 1006,3 16 47 0,0
23.02.2018 10:00:00 10,1 3,2 18 10 31 17 NE 1006,1 16 58 0,0
23.02.2018 09:00:00 6,7 2,7 11 6 17 9 N 1005,8 20 12 0,0
23.02.2018 08:00:00 5,7 1,9 12 6 18 10 N 1005,4 15 0 0,0
23.02.2018 07:00:00 6,4 2,3 12 7 20 11 N 1005,1 16 0 -
23.02.2018 06:00:00 5,5 1,7 11 6 18 10 N 1004,9 16 0 0,0
23.02.2018 05:00:00 5,7 1,3 13 7 20 11 N 1004,7 19 0 0,0
23.02.2018 04:00:00 6,1 1,7 13 7 20 11 N 1004,8 17 0 0,0
23.02.2018 03:00:00 6,4 1,7 13 7 25 14 N 1005,1 17 0 0,0
23.02.2018 02:00:00 6,8 1,9 13 7 24 13 N 1005,5 15 0 0,0
23.02.2018 01:00:00 6,1 2,1 12 6 20 11 N 1005,9 19 0 -
23.02.2018 00:00:00 5,9 2,3 11 6 17 9 N 1006,2 16 0 0,0
22.02.2018 23:00:00 6,4 3,2 10 5 21 11 N 1006,3 15 0 0,0
22.02.2018 22:00:00 6,1 4,1 14 8 22 12 N 1006,5 11 0 0,0
22.02.2018 21:00:00 6,2 3,9 14 8 22 12 N 1006,4 14 0 0,0
22.02.2018 20:00:00 6,3 4,3 12 6 17 9 N 1006,4 14 0 0,0
22.02.2018 19:00:00 6,4 4,6 12 6 21 12 N 1006,1 18 0 -
22.02.2018 18:00:00 6,9 5,0 16 8 24 13 N 1005,8 20 0 0,2
22.02.2018 17:00:00 7,5 5,5 12 7 22 12 NNW 1005,5 16 0 0,0
22.02.2018 16:00:00 7,2 4,6 13 7 34 18 NNW 1005,6 12 0 0,0
22.02.2018 15:00:00 8,7 5,0 13 7 20 11 N 1005,5 20 0 0,0
22.02.2018 14:00:00 8,1 4,5 11 6 22 12 N 1005,9 20 0 0,0
22.02.2018 13:00:00 8,0 6,1 12 6 21 12 N 1006,3 19 4 -
22.02.2018 12:00:00 6,6 5,0 10 6 27 15 N 1007,0 20 0 0,2
22.02.2018 11:00:00 6,3 4,8 19 10 45 24 NNW 1006,7 12 0 0,4
22.02.2018 10:00:00 9,0 3,0 18 10 42 23 NNE 1005,9 13 0 0,0
22.02.2018 09:00:00 9,3 3,0 23 12 40 22 NE 1005,8 13 2 0,0
22.02.2018 08:00:00 7,5 2,1 11 6 20 11 N 1005,5 19 0 0,0
22.02.2018 07:00:00 6,9 2,5 9 5 19 10 N 1005,6 19 0 -
22.02.2018 06:00:00 7,4 1,7 10 5 26 14 N 1005,5 20 0 0,0
22.02.2018 05:00:00 7,9 2,3 13 7 25 13 NNE 1005,3 17 0 0,0
22.02.2018 04:00:00 7,3 2,7 14 7 27 15 N 1005,5 18 0 0,0
22.02.2018 03:00:00 7,5 2,3 13 7 29 16 N 1006,0 20 0 0,0
22.02.2018 02:00:00 8,2 2,7 18 10 29 15 N 1006,5 20 0 0,0
22.02.2018 01:00:00 7,8 2,3 15 8 30 16 N 1006,4 20 0 -
22.02.2018 00:00:00 8,7 2,7 16 9 34 19 N 1006,5 20 0 0,0
21.02.2018 23:00:00 8,6 3,0 16 9 43 23 NNE 1006,5 17 0 0,0
21.02.2018 22:00:00 8,5 4,3 21 11 51 28 N 1006,0 18 0 0,0
21.02.2018 21:00:00 8,4 5,3 24 13 46 25 NNE 1005,5 18 0 0,2
21.02.2018 20:00:00 8,0 4,8 24 13 45 24 NNE 1005,4 20 0 0,0
21.02.2018 19:00:00 6,8 4,8 18 10 57 31 N 1005,4 20 0 -
21.02.2018 18:00:00 7,8 2,1 13 7 29 16 N 1005,2 20 0 0,0
21.02.2018 17:00:00 8,2 1,5 16 9 29 16 NNE 1005,3 18 0 0,0
21.02.2018 16:00:00 8,1 3,9 15 8 35 19 NNE 1005,8 15 0 0,0
21.02.2018 15:00:00 7,5 4,3 14 8 52 28 N 1006,0 20 0 0,2
21.02.2018 14:00:00 8,0 4,8 8 5 41 22 N 1005,9 20 0 0,0
21.02.2018 13:00:00 9,0 3,9 19 11 36 19 NNE 1006,3 20 0 -
21.02.2018 12:00:00 8,6 5,3 14 8 29 16 NNE 1006,8 20 0 1,2
21.02.2018 11:00:00 8,3 6,2 16 9 29 16 NNE 1007,0 8 0 0,6
21.02.2018 10:00:00 8,6 7,0 11 6 35 19 N 1006,8 20 0 1,0
21.02.2018 09:00:00 10,1 7,0 26 14 38 21 NE 1006,4 16 0 0,2
21.02.2018 08:00:00 10,5 6,8 13 7 29 15 NE 1006,3 19 0 0,6
21.02.2018 07:00:00 9,8 7,4 9 5 23 12 NNE 1006,7 18 0 -
21.02.2018 06:00:00 9,7 8,1 10 5 17 9 N 1007,1 20 0 0,4
21.02.2018 05:00:00 10,3 8,4 11 6 21 12 NNE 1007,5 15 0 0,8
21.02.2018 04:00:00 10,4 9,0 11 6 16 9 N 1007,4 20 0 0,6
21.02.2018 03:00:00 10,6 9,3 8 5 15 8 N 1008,3 20 0 0,0
21.02.2018 02:00:00 11,0 9,8 8 4 22 12 N 1009,3 16 0 1,2
21.02.2018 01:00:00 12,0 9,6 16 9 31 17 NE 1009,9 1,9 0 -
21.02.2018 00:00:00 11,6 9,8 4 2 8 4 NE 1009,5 17 0 0,0
20.02.2018 23:00:00 11,9 10,2 5 3 16 9 SSW 1009,6 20 0 0,0
20.02.2018 22:00:00 12,4 10,6 11 6 17 9 W 1009,9 20 0 0,0
20.02.2018 21:00:00 12,6 10,6 12 6 17 9 W 1009,9 20 0 0,0
20.02.2018 20:00:00 12,6 10,9 6 3 9 5 NNW 1010,0 19 0 0,0
20.02.2018 19:00:00 13,0 10,9 6 3 10 5 ENE 1009,8 20 0 -
20.02.2018 18:00:00 13,5 10,6 2 1 11 6 NE 1009,4 20 0 0,0
20.02.2018 17:00:00 14,2 10,8 6 3 9 5 S 1009,0 20 0 0,0
20.02.2018 16:00:00 14,8 11,2 4 2 13 7 SE 1009,2 20 0 0,0
20.02.2018 15:00:00 14,5 11,1 9 5 14 8 E 1009,3 20 0 0,0
20.02.2018 14:00:00 14,5 10,8 10 5 24 13 E 1009,9 20 0 0,0
20.02.2018 13:00:00 15,7 8,9 11 6 31 17 N 1010,4 20 5 -
20.02.2018 12:00:00 16,4 10,3 12 7 32 17 WNW 1010,8 20 52 0,0
20.02.2018 11:00:00 14,3 11,2 4 2 20 11 W 1011,5 20 0 0,0
20.02.2018 10:00:00 13,1 10,8 9 5 19 10 W 1011,5 20 0 0,0
20.02.2018 09:00:00 12,3 10,0 5 3 11 6 WNW 1011,9 20 0 0,0
20.02.2018 08:00:00 11,8 9,6 5 3 18 10 NNW 1012,0 20 0 0,0
20.02.2018 07:00:00 11,2 9,2 10 5 21 11 NW 1012,0 20 0 -
20.02.2018 06:00:00 11,0 8,5 9 5 18 10 NW 1012,1 20 0 0,0
20.02.2018 05:00:00 11,4 8,3 10 5 18 10 NW 1012,6 20 0 0,0
20.02.2018 04:00:00 10,8 8,4 7 4 14 8 NW 1013,1 20 0 0,0
20.02.2018 03:00:00 10,2 8,1 9 5 15 8 W 1013,4 20 0 0,0
20.02.2018 02:00:00 8,9 7,3 4 2 12 6 WNW 1014,1 20 0 0,0
20.02.2018 01:00:00 8,3 7,1 9 5 13 7 NW 1014,6 20 0 -
20.02.2018 00:00:00 8,0 7,0 9 5 11 6 N 1014,9 20 0 0,0
19.02.2018 23:00:00 8,0 7,0 9 5 11 6 N 1015,3 20 0 0,0
19.02.2018 22:00:00 8,9 7,7 7 4 10 5 NNW 1015,3 20 0 0,0
19.02.2018 21:00:00 8,9 7,8 9 5 11 6 N 1015,5 20 0 0,0
19.02.2018 20:00:00 9,6 8,4 5 3 7 4 NNW 1015,5 11 0 0,0
19.02.2018 19:00:00 11,0 8,5 1 1 5 3 SSW 1015,4 20 0 -
19.02.2018 18:00:00 11,5 9,0 4 2 13 7 SW 1015,5 20 0 0,0
19.02.2018 17:00:00 11,7 9,4 10 5 14 8 SW 1015,5 20 9 0,0
19.02.2018 16:00:00 11,4 9,2 11 6 34 18 SSW 1015,9 20 6 5,2
19.02.2018 15:00:00 13,6 8,4 17 9 23 12 S 1015,7 20 10 0,0
19.02.2018 14:00:00 15,8 7,8 19 10 27 15 SSW 1015,9 20 60 0,0
19.02.2018 13:00:00 14,8 7,3 21 12 25 13 SSW 1016,5 20 59 -
19.02.2018 12:00:00 - - - - - - - - - - -
19.02.2018 11:00:00 13,8 7,8 6 3 10 5 SW 1017,2 20 60 0,0
19.02.2018 10:00:00 10,0 6,8 6 3 8 5 NW 1017,5 17 6 0,0
19.02.2018 09:00:00 9,6 5,6 4 2 9 5 NW 1017,7 20 0 0,0
19.02.2018 08:00:00 8,9 5,3 5 3 8 5 NW 1017,3 20 0 0,0
19.02.2018 07:00:00 8,1 5,5 4 2 6 4 NNW 1017,1 20 0 -
19.02.2018 06:00:00 7,8 4,8 5 3 8 4 NNW 1017,0 20 0 0,0

tt = Température de l'air
td = dewpoint
ff = Vitesse du vent
fx = gusts
dd = Direction du vent
ppp = reduced air pressure
vv = visibility
sd = Ensoleillement
rr = Quantités de précipitations

stations d'obs. à proximité